Location: Newark
(16.3678°N, 77.8722°E)
Time: 21:32:17
(UTC+00:00)

Vanguard 3 - Visible Passes

Search period start: 08 December 2019 00:00
Search period end: 18 December 2019 00:00
Orbit: 508 x 3263 km, 33.3° (Epoch: 07 December)

Date Brightness Start Highest point End Pass type
(mag) Time Alt. Az. Time Alt. Az. Time Alt. Az.
08 Dec 8.9 00:06:51 10° SSW 00:11:22 38° SE 00:18:35 10° ENE visible
08 Dec 11.5 13:42:50 10° WSW 13:49:08 13° SW 13:54:43 10° SSW visible
08 Dec 9.6 22:56:17 10° SSE 22:58:13 12° SE 23:00:26 10° ESE visible
09 Dec 11.4 12:18:23 10° W 12:33:08 27° SW 12:45:18 10° S visible
09 Dec 8.1 23:50:59 10° SW 23:55:16 46° SE 00:02:05 10° ENE visible
10 Dec 11.7 13:29:18 10° SW 13:32:26 11° SW 13:35:24 10° SSW visible
10 Dec 9.2 22:40:50 14° SSE 22:42:05 16° SE 22:45:06 10° E visible
11 Dec 7.3 23:36:31 21° SW 23:39:17 60° SE 23:45:37 10° ENE visible
12 Dec 9.2 22:27:29 17° ESE 22:27:29 17° ESE 22:29:31 10° E visible
13 Dec 7.5 00:32:49 10° W 00:37:20 50° NNW 00:44:45 10° NE visible
13 Dec 6.6 23:22:59 72° SSW 23:23:24 82° SSE 23:29:12 10° ENE visible
15 Dec 7.7 00:18:25 16° W 00:21:37 37° NNW 00:27:56 10° NE visible
15 Dec 7.6 23:09:10 40° NE 23:09:10 40° NE 23:12:50 10° NE visible
17 Dec 7.8 00:04:27 23° NW 00:05:59 28° NNW 00:11:10 10° NE visible
17 Dec 8.9 22:55:03 18° NE 22:55:03 18° NE 22:56:29 10° NE visible
